| time (UTC) | temp F | wind direction | speed MPH | gust MPH | rain 1hr in | rain 24hr in | rain mn in | humidity % | barometer mb |
| 20260904010046 | 50 | 58 | 0.0 | 3.0 | 0.00 | 0.18 | 0.00 | 85 | 1014.4 |
| 20260904004543 | 49 | 80 | 0.0 | 3.0 | 0.00 | 0.22 | 0.00 | 86 | 1014.5 |
| 20260904003049 | 49 | 81 | 0.0 | 3.0 | 0.00 | 0.22 | 0.00 | 84 | 1014.6 |
| 20260904001550 | 49 | 88 | 2.0 | 7.0 | 0.00 | 0.22 | 0.00 | 82 | 1014.5 |
| 20260903234544 | 51 | 83 | 2.0 | 5.0 | 0.00 | 0.24 | 0.00 | 80 | 1014.3 |
| 20260903233041 | 51 | 145 | 2.0 | 8.0 | 0.00 | 0.24 | 0.00 | 78 | 1014.3 |
| 20260903231545 | 52 | 53 | 1.0 | 4.0 | 0.00 | 0.24 | 0.00 | 79 | 1014.3 |
| 20260903230049 | 52 | 46 | 0.0 | 5.0 | 0.00 | 0.24 | 0.00 | 80 | 1014.2 |
| 20260903224550 | 53 | 340 | 1.0 | 4.0 | 0.00 | 0.24 | 0.00 | 78 | 1014.1 |
| 20260903223046 | 53 | 63 | 1.0 | 6.0 | 0.00 | 0.24 | 0.00 | 78 | 1014.3 |
| 20260903221544 | 54 | 89 | 2.0 | 5.0 | 0.00 | 0.24 | 0.00 | 78 | 1014.3 |
| 20260903220039 | 53 | 57 | 2.0 | 8.0 | 0.00 | 0.24 | 0.00 | 79 | 1014.2 |
| 20260903214605 | 53 | 84 | 2.0 | 8.0 | 0.00 | 0.24 | 0.00 | 83 | 1014.2 |
| 20260903213048 | 53 | 84 | 1.0 | 6.0 | 0.00 | 0.24 | 0.00 | 81 | 1014.2 |
| 20260903211600 | 52 | 69 | 2.0 | 5.0 | 0.00 | 0.24 | 0.00 | 81 | 1014.1 |
| 20260903210052 | 52 | 98 | 1.0 | 5.0 | 0.00 | 0.24 | 0.00 | 80 | 1014.0 |
| 20260903204551 | 53 | 80 | 2.0 | 6.0 | 0.00 | 0.24 | 0.00 | 78 | 1014.0 |
| 20260903203044 | 54 | 145 | 0.0 | 3.0 | 0.00 | 0.24 | 0.00 | 75 | 1014.0 |
| 20260903201600 | 55 | 146 | 1.0 | 7.0 | 0.00 | 0.24 | 0.00 | 79 | 1013.9 |
| 20260903200057 | 54 | 70 | 1.0 | 3.0 | 0.00 | 0.24 | 0.00 | 77 | 1014.0 |
| 20260903194554 | 54 | 124 | 1.0 | 4.0 | 0.00 | 0.24 | 0.00 | 79 | 1014.0 |
| 20260903193046 | 55 | 171 | 2.0 | 5.0 | 0.00 | 0.24 | 0.00 | 79 | 1013.9 |
| 20260903191548 | 55 | 177 | 1.0 | 5.0 | 0.00 | 0.24 | 0.00 | 76 | 1013.9 |
| 20260903190051 | 56 | 222 | 1.0 | 3.0 | 0.00 | 0.24 | 0.00 | 78 | 1013.7 |
| 20260903184549 | 55 | 184 | 2.0 | 5.0 | 0.00 | 0.24 | 0.00 | 81 | 1013.6 |
| 20260903183052 | 54 | 182 | 1.0 | 3.0 | 0.00 | 0.24 | 0.00 | 79 | 1013.5 |
| 20260903181545 | 54 | 157 | 1.0 | 3.0 | 0.00 | 0.24 | 0.00 | 83 | 1013.5 |
| 20260903180056 | 51 | 155 | 0.0 | 2.0 | 0.00 | 0.24 | 0.00 | 85 | 1013.5 |
| 20260903174551 | 50 | 128 | 0.0 | 2.0 | 0.00 | 0.24 | 0.00 | 84 | 1013.6 |
| 20260903173049 | 50 | 189 | 0.0 | 3.0 | 0.00 | 0.24 | 0.00 | 87 | 1013.6 |
| 20260903171557 | 50 | 172 | 0.0 | 2.0 | 0.00 | 0.24 | 0.00 | 86 | 1013.5 |
| 20260903164550 | 47 | 144 | 0.0 | 2.0 | 0.00 | 0.24 | 0.00 | 95 | 1013.8 |
| 20260903163049 | 46 | 182 | 0.0 | 1.0 | 0.00 | 0.24 | 0.00 | 95 | 1013.7 |
| 20260903161546 | 46 | 149 | 0.0 | 1.0 | 0.00 | 0.24 | 0.00 | 95 | 1013.9 |
| 20260903160054 | 46 | 120 | 0.0 | 1.0 | 0.00 | 0.24 | 0.00 | 97 | 1013.8 |
| 20260903154553 | 45 | 22 | 0.0 | 1.0 | 0.00 | 0.24 | 0.00 | 98 | 1013.7 |
| 20260903153106 | 44 | 22 | 0.0 | 0.0 | 0.00 | 0.24 | 0.00 | 99 | 1013.6 |
| 20260903151549 | 44 | 22 | 0.0 | 0.0 | 0.00 | 0.24 | 0.00 | 99 | 1013.4 |
| 20260903150110 | 44 | 22 | 0.0 | 0.0 | 0.00 | 0.24 | 0.00 | 99 | 1013.4 |
| 20260903144555 | 44 | 22 | 0.0 | 0.0 | 0.00 | 0.25 | 0.00 | 99 | 1013.4 |
| 20260903143105 | 43 | 22 | 0.0 | 0.0 | 0.00 | 0.25 | 0.00 | 99 | 1013.5 |
| 20260903141550 | 43 | 22 | 0.0 | 0.0 | 0.00 | 0.25 | 0.00 | 99 | 1013.5 |
| 20260903140106 | 43 | 22 | 0.0 | 1.0 | 0.00 | 0.25 | 0.00 | 99 | 1013.5 |
| 20260903134549 | 43 | 22 | 0.0 | 0.0 | 0.00 | 0.26 | 0.00 | 99 | 1013.5 |
| 20260903133101 | 42 | 22 | 0.0 | 1.0 | 0.00 | 0.26 | 0.00 | 99 | 1013.4 |
| 20260903131554 | 42 | 22 | 0.0 | 0.0 | 0.00 | 0.26 | 0.00 | 99 | 1013.2 |
| 20260903124557 | 42 | 22 | 0.0 | 0.0 | 0.00 | 0.28 | 0.00 | 99 | 1013.1 |
| 20260903123053 | 43 | 22 | 0.0 | 0.0 | 0.00 | 0.28 | 0.00 | 99 | 1013.1 |
| 20260903121552 | 42 | 22 | 0.0 | 0.0 | 0.00 | 0.28 | 0.00 | 99 | 1013.1 |
| 20260903120058 | 42 | 22 | 0.0 | 0.0 | 0.00 | 0.28 | 0.00 | 99 | 1013.0 |
| 20260903114558 | 42 | 22 | 0.0 | 1.0 | 0.00 | 0.29 | 0.00 | 99 | 1013.1 |
| 20260903113053 | 42 | 22 | 0.0 | 0.0 | 0.00 | 0.29 | 0.00 | 99 | 1013.2 |
| 20260903111557 | 42 | 22 | 0.0 | 0.0 | 0.00 | 0.29 | 0.00 | 99 | 1013.1 |
| 20260903110058 | 42 | 22 | 0.0 | 0.0 | 0.00 | 0.29 | 0.00 | 99 | 1013.1 |
| 20260903104609 | 42 | 22 | 0.0 | 0.0 | 0.00 | 0.29 | 0.00 | 99 | 1012.9 |
| 20260903103100 | 42 | 22 | 0.0 | 0.0 | 0.00 | 0.29 | 0.00 | 99 | 1012.8 |
| 20260903101552 | 42 | 22 | 0.0 | 1.0 | 0.00 | 0.29 | 0.00 | 99 | 1012.8 |
| 20260903100059 | 41 | 22 | 0.0 | 0.0 | 0.00 | 0.29 | 0.00 | 98 | 1012.9 |
| 20260903094551 | 40 | 22 | 0.0 | 0.0 | 0.00 | 0.29 | 0.00 | 98 | 1012.9 |
| 20260903093102 | 40 | 22 | 0.0 | 0.0 | 0.00 | 0.29 | 0.00 | 98 | 1013.0 |
| 20260903091552 | 40 | 22 | 0.0 | 0.0 | 0.00 | 0.29 | 0.00 | 97 | 1012.6 |
| 20260903090057 | 40 | 22 | 0.0 | 0.0 | 0.00 | 0.29 | 0.00 | 97 | 1012.6 |
| 20260903084557 | 41 | 22 | 0.0 | 1.0 | 0.00 | 0.29 | 0.00 | 97 | 1012.6 |
| 20260903083058 | 41 | 22 | 0.0 | 1.0 | 0.00 | 0.29 | 0.00 | 97 | 1012.7 |
| 20260903081603 | 42 | 22 | 0.0 | 1.0 | 0.00 | 0.29 | 0.00 | 98 | 1012.8 |
| 20260903080059 | 42 | 22 | 0.0 | 1.0 | 0.00 | 0.29 | 0.00 | 98 | 1012.9 |
| 20260903074555 | 42 | 22 | 0.0 | 0.0 | 0.00 | 0.29 | 0.00 | 97 | 1012.9 |
| 20260903073051 | 42 | 22 | 0.0 | 0.0 | 0.00 | 0.29 | 0.00 | 97 | 1012.5 |
| 20260903071555 | 43 | 22 | 0.0 | 1.0 | 0.00 | 0.29 | 0.00 | 97 | 1012.5 |
| 20260903070058 | 43 | 22 | 0.0 | 0.0 | 0.00 | 0.29 | 0.00 | 96 | 1012.5 |
| 20260903064554 | 43 | 22 | 0.0 | 1.0 | 0.00 | 0.32 | 0.29 | 96 | 1012.4 |
| 20260903063053 | 44 | 22 | 0.0 | 0.0 | 0.00 | 0.32 | 0.29 | 97 | 1012.3 |
| 20260903061604 | 44 | 22 | 0.0 | 1.0 | 0.00 | 0.32 | 0.29 | 97 | 1012.5 |
| 20260903060039 | 44 | 22 | 0.0 | 0.0 | 0.01 | 0.32 | 0.29 | 97 | 1012.3 |
| 20260903054533 | 44 | 22 | 0.0 | 1.0 | 0.01 | 0.32 | 0.29 | 97 | 1012.5 |
| 20260903053037 | 44 | 22 | 0.0 | 2.0 | 0.01 | 0.32 | 0.29 | 97 | 1012.4 |
| 20260903051533 | 44 | 242 | 0.0 | 1.0 | 0.01 | 0.32 | 0.29 | 97 | 1012.5 |
| 20260903050046 | 45 | 224 | 0.0 | 1.0 | 0.00 | 0.31 | 0.28 | 97 | 1012.4 |
| 20260903044542 | 45 | 224 | 0.0 | 2.0 | 0.00 | 0.31 | 0.28 | 97 | 1012.2 |
| 20260903043035 | 45 | 157 | 0.0 | 2.0 | 0.00 | 0.31 | 0.28 | 97 | 1012.2 |
| 20260903041543 | 45 | 200 | 0.0 | 2.0 | 0.00 | 0.31 | 0.28 | 96 | 1012.0 |
| 20260903040036 | 45 | 9 | 0.0 | 2.0 | 0.01 | 0.31 | 0.28 | 95 | 1011.9 |
| 20260903034536 | 46 | 140 | 0.0 | 3.0 | 0.04 | 0.31 | 0.28 | 95 | 1012.0 |
| 20260903033034 | 46 | 34 | 1.0 | 3.0 | 0.17 | 0.31 | 0.28 | 95 | 1011.8 |
| 20260903031537 | 47 | 170 | 0.0 | 2.0 | 0.17 | 0.31 | 0.28 | 95 | 1011.6 |
| 20260903030036 | 47 | 136 | 0.0 | 9.0 | 0.16 | 0.29 | 0.26 | 96 | 1011.3 |
| 20260903024535 | 48 | 105 | 1.0 | 9.0 | 0.11 | 0.25 | 0.22 | 95 | 1010.8 |
| 20260903023037 | 49 | 188 | 0.0 | 3.0 | 0.00 | 0.14 | 0.11 | 97 | 1010.3 |
| 20260903021537 | 49 | 338 | 0.0 | 0.0 | 0.00 | 0.14 | 0.11 | 96 | 1010.0 |
| 20260903020057 | 49 | 338 | 0.0 | 1.0 | 0.00 | 0.14 | 0.11 | 96 | 1009.9 |
| 20260903014538 | 49 | 338 | 0.0 | 1.0 | 0.00 | 0.14 | 0.11 | 95 | 1010.0 |
| 20260903013035 | 49 | 338 | 0.0 | 1.0 | 0.01 | 0.14 | 0.11 | 95 | 1010.1 |
| 20260903011534 | 50 | 338 | 0.0 | 2.0 | 0.04 | 0.14 | 0.11 | 95 | 1010.1 |